Location: ?????????
(44.5465°N, 135.0653°E)
Time: 22:30:02
(UTC+00:00)

Daily predictions for brighter satellites

Satellite Brightness Start Highest point End
(mag) Time Altitude Azimuth Time Altitude Azimuth Time Altitude Azimuth
PSLV R/B 3.7 12:03:41 47° ENE 12:03:41 47° ENE 12:06:36 10° N
Cosmos 2315 Rocket 4.5 12:04:01 31° SE 12:06:09 41° E 12:11:59 10° NNE
SAR-Lupe-2 3.8 12:05:38 42° SSW 12:06:39 65° WSW 12:10:13 10° NNW
Cosmos 1455 Rocket 2.9 12:05:59 33° S 12:07:53 86° E 12:12:14 10° N
Cosmos 1862 2.9 12:06:26 10° N 12:10:07 78° E 12:10:32 66° SE
Okean 1 Rocket 4.3 12:06:36 10° SSW 12:10:40 39° WNW 12:14:46 10° N
Cosmos 2278 Rocket 2.5 12:08:36 10° NNW 12:14:12 62° WSW 12:16:54 31° S
Cosmos 1553 Rocket 4.4 12:07:53 10° SSW 12:14:13 67° W 12:20:38 10° N
Cosmos 1777 Rocket 4.3 12:09:12 10° NNW 12:14:22 52° ENE 12:15:49 40° ESE
Cosmos 1602 3.7 12:14:19 10° N 12:17:09 53° NE 12:17:09 53° NE
CENTAUR R/B 2.4 12:13:25 10° SW 12:18:54 82° NW 12:25:52 10° NE
SPOT 3 Rocket 3.5 12:18:10 44° SE 12:19:48 73° ENE 12:24:58 10° N
Cosmos 292 Rocket 3.7 12:16:28 10° NNW 12:21:17 84° WSW 12:22:34 49° SSE
Cosmos 1417 Rocket 4.4 12:18:37 25° S 12:22:22 87° E 12:28:34 10° N
Cosmos 1340 Rocket 2.7 12:21:38 52° SSW 12:22:26 76° W 12:26:17 10° N
ERS-1 Rocket 4.0 12:22:09 20° SSW 12:25:09 40° W 12:29:53 10° NNW
Cosmos 1354 Rocket 4.5 12:20:42 10° N 12:25:49 46° ENE 12:26:56 40° E
Cosmos 1709 Rocket 4.0 12:21:09 10° N 12:27:21 67° E 12:29:27 43° SSE
Ariane Rocket 2.9 12:31:25 52° SSE 12:32:41 89° ENE 12:37:45 10° NNW
Cosmos 1943 Rocket 2.7 12:29:18 10° NW 12:34:36 49° WSW 12:36:35 34° SSW
Cosmos 2285 Rocket 3.9 12:28:57 10° NNW 12:35:17 77° ENE 12:37:16 47° SE
Cosmos 1980 4.4 12:30:52 10° SW 12:36:23 52° WNW 12:41:58 10° NNE
Terra 3.1 12:34:18 22° SW 12:36:33 34° W 12:40:51 10° NNW
Meteor 2-20 Rocket 4.4 12:34:40 28° SSW 12:37:47 75° W 12:43:30 10° N
Uosat 12 SS-18 rocket 4.0 12:37:21 37° SW 12:38:59 80° NW 12:43:24 10° NNE
Cosmos 1486 Rocket 4.2 12:37:26 10° NNW 12:42:34 61° WSW 12:43:48 47° SSW
Cosmos 1544 Rocket 3.6 12:43:02 61° ENE 12:43:02 61° ENE 12:47:04 10° NNE
Cosmos 1656 Rocket 4.0 12:38:43 10° NNW 12:44:16 53° ENE 12:45:18 46° E
SL-4 R/B 2.7 12:49:12 10° WNW 12:51:34 42° NW 12:51:34 42° NW
Cosmos 1812 3.9 12:53:54 34° NW 12:53:54 34° NW 12:56:24 10° N
ATLAS 5 CENTAUR R/B 3.7 12:54:56 10° N 12:58:18 21° NE 12:59:50 18° ENE
Meteor 1-27 4.1 12:57:37 55° SSW 12:58:56 85° W 13:04:32 10° N
Cosmos 1626 Rocket 3.6 12:55:18 10° N 12:59:24 76° NW 12:59:24 76° NW
Cosmos 2074 Rocket 4.4 13:01:57 10° N 13:07:59 47° ENE 13:08:38 45° E
Cosmos 1503 Rocket 4.4 13:06:20 10° NNW 13:11:30 53° WSW 13:11:59 51° SW
Cosmos 2237 Rocket 4.0 13:11:37 10° WSW 13:16:29 29° NW 13:21:23 10° N
Cosmos 2228 4.1 13:22:59 38° W 13:23:06 38° WNW 13:27:05 10° N
Cosmos 468 Rocket 4.4 13:24:45 53° ENE 13:24:45 53° ENE 13:29:02 10° NNE
GEOS 3 Rocket 3.7 13:24:45 64° ENE 13:24:56 64° NE 13:30:01 10° NNW
Cosmos 1295 Rocket 4.4 13:21:15 10° N 13:27:26 65° E 13:27:47 64° E
Cosmos 2369 Rocket 2.2 13:24:19 10° NNW 13:30:03 73° ENE 13:30:10 73° ENE
COBE Rocket 4.2 13:27:49 10° NNE 13:31:49 58° NE 13:31:49 58° NE
Cosmos 1763 Rocket 3.7 13:33:30 61° W 13:33:55 63° WNW 13:39:09 10° NNE
Nadezhda 1 Rocket 4.4 13:34:24 46° E 13:34:24 46° E 13:39:49 10° NNE
Cosmos 990 Rocket 4.1 13:30:05 10° NNW 13:34:46 67° WNW 13:34:46 67° WNW
Cosmos 540 Rocket 3.5 13:35:33 73° NW 13:35:33 73° NW 13:40:27 10° NNE
Aureole 1 Rocket 4.4 13:32:05 10° N 13:34:18 32° NNE 13:34:18 32° NNE
SL-16 R/B 2.5 13:35:34 49° WSW 13:36:49 62° WNW 13:42:28 10° NNE
COSMOS 2455 3.0 13:41:06 58° ENE 13:41:06 58° ENE 13:46:13 10° NE
NOSS 3-2 (A) 4.2 13:36:56 16° WSW 13:40:52 44° NW 13:46:46 10° NNE
Cosmos 2151 4.1 13:39:58 10° N 13:42:40 40° N 13:42:40 40° N
ALOS 2 4.1 13:46:23 29° NE 13:46:23 29° NE 13:49:16 10° N
Cosmos 2297 3.7 13:40:22 10° NNW 13:45:43 77° WNW 13:45:43 77° WNW
Cosmos 1898 Rocket 3.9 13:43:50 10° NNW 13:48:22 57° NNE 13:48:22 57° NNE
Cosmos 1607 3.9 13:43:54 10° NNW 13:50:04 70° NE 13:50:22 69° ENE
Iridium 4 Rocket 4.1 13:51:18 10° N 13:54:24 43° NW 13:54:24 43° NW
Cosmos 841 Rocket 4.3 14:01:19 42° NE 14:01:19 42° NE 14:04:52 10° NNE
Meteor 1-25 Rocket 4.3 13:59:17 10° N 14:04:24 69° NNE 14:04:24 69° NNE
Cosmos 2344 3.3 14:05:08 70° SSE 14:05:38 73° ESE 14:12:50 10° NE
Lacrosse 5 rocket 3.8 14:09:28 16° NNE 14:09:28 16° NNE 14:10:30 10° NNE
Cosmos 1610 Rocket 4.4 14:01:25 10° N 14:07:37 80° ENE 14:07:37 80° ENE
USA 234 4.4 14:07:15 10° E 14:13:13 39° NNE 14:19:11 10° NW
NOSS 3-2 (C) 3.7 14:17:10 52° WNW 14:17:44 54° NW 14:23:45 10° NNE
USA 238 DEB 3.7 14:21:59 60° ENE 14:21:59 60° ENE 14:27:37 10° NE
USA 238 3.7 14:22:07 59° ENE 14:22:07 59° ENE 14:27:42 10° NE
ARIANE 5 R/B 4.1 14:25:33 31° NW 14:25:33 31° NW 14:28:05 10° NNW
Cosmos 2154 Rocket 4.5 14:28:42 10° NNW 14:34:35 47° W 14:34:35 47° W
Cosmos 2366 rocket 4.2 14:33:34 10° N 14:39:46 63° ENE 14:39:46 63° ENE
ATLAS 5 CENTAUR R/B 2.9 14:36:57 10° NW 14:39:47 39° NW 14:39:47 39° NW
Cosmos 1943 3.9 14:51:54 46° WNW 14:52:02 46° WNW 14:57:27 10° NNE
SL-8 Rocket 4.0 14:56:25 10° N 15:02:13 76° NW 15:02:13 76° NW
Cosmos 1656 4.4 14:57:45 10° NNW 15:03:15 46° ENE 15:03:24 46° ENE
CZ-4C R/B 3.9 14:59:02 10° NNW 15:05:32 42° NE 15:13:25 10° ESE
Cosmos 2369 Rocket 4.3 15:09:45 10° WNW 15:11:56 16° W 15:11:56 16° W
Cosmos 2218 Rocket 4.1 15:13:44 10° NNW 15:19:50 70° WNW 15:19:50 70° WNW
USA 267 3.1 15:14:15 10° NE 15:20:51 87° NW 15:21:15 80° WSW
BREEZE-M DEB (TANK) 3.9 15:12:11 10° W 15:22:33 52° N 15:24:16 32° NE
Cosmos 2181 Rocket 3.9 15:26:29 75° NW 15:26:29 75° NW 15:32:27 10° N
COSMOS 2455 4.5 15:24:10 21° W 15:26:38 27° NW 15:31:44 10° NNE
CZ-2C R/B 4.3 15:21:37 10° NNE 15:26:12 34° E 15:26:12 34° E
CZ-2C R/B 3.3 15:38:15 48° ENE 15:38:24 48° ENE 15:43:28 10° N
Cosmos 2239 Rocket 4.4 15:36:26 10° N 15:42:45 76° E 15:42:55 75° E
Cosmos 1238 Rocket 4.2 15:46:29 46° NNW 15:46:29 46° NNW 15:50:01 10° N
Lacrosse 5 rocket 4.3 15:45:10 10° NNW 15:46:11 11° N 15:47:11 10° NNE
BlueWalker 3 4.4 15:49:06 20° NNE 15:49:06 20° NNE 15:50:31 10° NE
Cosmos 1821 Rocket 4.1 15:47:10 10° NNW 15:52:56 59° WNW 15:52:56 59° WNW
USA 234 3.2 15:53:39 47° ESE 15:55:47 86° NE 16:02:23 10° NW
USA 281 3.7 15:49:50 10° NE 15:56:05 44° ESE 15:56:39 43° ESE
Cosmos 1833 Rocket 3.0 15:58:09 59° E 15:58:09 59° E 16:03:15 10° NNE
Cosmos 1980 Rocket 4.1 15:57:31 10° N 16:02:12 26° NE 16:06:51 10° ESE
Lacrosse 4 Rocket 3.1 16:04:53 28° N 16:04:53 28° N 16:07:10 10° NNE
H-2A R/B 3.7 16:03:28 10° NE 16:06:27 26° ENE 16:06:27 26° ENE
SL-08 R/B 4.4 16:01:09 10° N 16:07:37 82° W 16:07:58 78° SW
Meteor 1-11 Rocket 3.6 16:06:07 10° N 16:11:41 82° ENE 16:11:41 82° ENE
CZ-2D R/B 4.1 16:08:33 10° NE 16:12:17 19° E 16:13:52 17° ESE
Meteor 1-27 Rocket 4.0 16:12:08 60° ESE 16:12:27 61° E 16:18:05 10° NNE
Cosmos 1842 Rocket 4.3 16:18:01 50° NNE 16:18:01 50° NNE 16:21:21 10° NNE
H-2A R/B 4.4 16:19:45 21° NW 16:19:45 21° NW 16:21:23 10° NNW
Nadezhda 3 Rocket 4.1 16:20:57 58° W 16:21:11 58° WNW 16:27:16 10° N
Meteor 1-19 Rocket 4.1 16:22:14 82° SW 16:22:27 85° W 16:28:28 10° N
Cosmos 2221 4.4 16:28:31 22° NW 16:28:31 22° NW 16:30:48 10° NNW
Cosmos 2082 Rocket 3.6 16:27:36 25° ESE 16:28:35 26° ESE 16:33:11 10° NE
NPP 4.1 16:23:45 10° NNE 16:28:59 49° E 16:29:34 47° ESE
ADEOS II 4.2 16:25:57 10° NE 16:29:27 18° E 16:31:39 14° ESE
Cosmos 2150 Rocket 4.3 16:24:57 10° NNW 16:30:14 64° ENE 16:31:13 53° ESE
Cosmos 1570 Rocket 4.0 16:31:31 68° NW 16:31:31 68° NW 16:36:35 10° NNE
IDEFIX/ARIANE 42P 2.7 16:28:58 10° NNE 16:34:09 62° ESE 16:34:28 61° ESE
ASTEX 1 4.3 16:32:16 10° N 16:36:11 38° WNW 16:36:11 38° WNW
Cosmos 1408 Rocket 3.9 16:37:28 10° N 16:41:47 59° ENE 16:41:47 59° ENE
Cosmos 1535 Rocket 4.5 16:35:57 10° N 16:42:24 87° E 16:44:00 54° SSE
ARIANE 6 FM1 Upper Stage 4.4 16:43:24 23° E 16:43:24 23° E 16:45:52 10° ENE
Resurs 1-4 Rocket 3.2 16:37:50 10° NNE 16:42:40 35° E 16:44:04 30° SE
MOZ.5/SAFIR/RUBIN 5/SL-8 3.9 16:43:30 69° ESE 16:43:47 71° ENE 16:48:29 10° N
MSX 3.9 16:38:16 10° NNE 16:44:03 71° ESE 16:45:06 58° SSE
Cosmos 1697 Rocket 2.5 16:38:29 10° NNW 16:44:08 78° WSW 16:44:29 75° SSW
Cosmos 1842 4.4 16:51:39 37° NE 16:51:39 37° NE 16:54:02 10° NNE
Cosmos 773 Rocket 3.8 16:50:29 79° WSW 16:50:44 84° WNW 16:55:57 10° NNE
Sich 1 3.2 16:46:41 10° N 16:50:47 70° NE 16:50:47 70° NE
CZ-4C R/B 3.0 16:47:06 10° NW 16:54:21 62° WSW 16:58:23 33° S
Cosmos 1605 Rocket 3.9 16:54:41 10° N 17:01:07 78° W 17:02:57 49° S
Cosmos 1975 4.1 16:59:15 10° NNW 17:01:19 29° NW 17:01:19 29° NW
Cosmos 1867 4.5 16:57:38 10° NNW 17:02:56 48° NE 17:08:10 10° ESE
USA 267 4.3 16:57:27 10° NE 17:03:25 39° NNW 17:08:35 14° W
CZ-2C R/B 4.0 17:01:22 10° N 17:06:23 37° WNW 17:07:11 35° W
KORONAS-FOTON 4.5 17:09:15 44° NNW 17:09:15 44° NNW 17:11:52 10° N
Cosmos 220 Rocket 3.8 17:14:49 78° WNW 17:14:49 78° WNW 17:18:55 10° NNE
ISS -2.6 17:15:56 39° N 17:15:56 39° N 17:18:55 10° NE
CZ-2C R/B 4.0 17:19:42 23° WNW 17:19:42 23° WNW 17:23:06 10° NW
Cosmos 1300 3.9 17:16:20 10° NNE 17:19:13 30° ENE 17:19:53 27° ESE
Cosmos 1151 Rocket 2.8 17:19:47 76° SSW 17:20:05 84° W 17:24:22 10° N
Lacrosse 5 rocket 4.0 17:22:52 10° NNW 17:24:53 15° NNE 17:26:52 10° NE
Cosmos 1727 Rocket 4.0 17:22:00 35° S 17:24:55 82° E 17:31:15 10° N
BlueWalker 3 4.2 17:23:03 11° NW 17:25:37 21° N 17:28:28 10° NE
Cosmos 1066 Rocket 4.0 17:25:32 44° S 17:27:20 89° E 17:32:50 10° N
COSMOS 2406 3.8 17:25:15 30° SSE 17:27:45 51° ESE 17:33:15 10° NE
Cosmos 1900 4.4 17:23:28 10° NNW 17:28:35 86° ENE 17:33:43 10° SSE
SL-16 R/B 4.1 17:25:02 10° N 17:30:01 30° NE 17:34:57 10° ESE
NOSS 3-1 (C) 3.1 17:31:58 45° WSW 17:33:20 64° NW 17:39:02 10° NNE
USA 234 4.2 17:40:53 26° WSW 17:40:53 26° WSW 17:44:48 10° WNW
USA 281 3.9 17:34:27 10° NNE 17:40:30 41° NW 17:43:32 26° WSW
Cosmos 1833 Rocket 4.2 17:39:48 19° W 17:42:01 24° NW 17:46:35 10° N
H-2A R/B 3.1 17:38:51 10° N 17:42:33 28° WNW 17:42:59 28° WNW
FENGYUN 3A 3.8 17:37:36 10° N 17:42:56 59° WNW 17:44:52 37° SW
Cosmos 2369 3.6 17:37:47 10° NNW 17:43:30 88° WSW 17:49:09 10° SSE
Cosmos 1980 Rocket 2.2 17:41:03 10° NW 17:46:29 54° WSW 17:49:25 26° S
Cosmos 2100 Rocket 4.0 17:40:08 10° N 17:46:33 88° E 17:52:28 12° S
AQUA 4.4 17:42:56 10° NNE 17:47:32 53° E 17:50:30 21° S
Cosmos 2333 Rocket 4.5 17:43:21 10° N 17:48:09 26° NE 17:52:55 10° ESE
NOSS 3-1 (A) 3.0 17:46:19 38° SSW 17:48:11 75° SE 17:53:48 10° NE
Meteor 2-4 Rocket 4.4 17:50:01 30° WSW 17:51:34 36° WNW 17:56:38 10° N
ATLAS CENTAUR R/B 1.2 17:51:27 51° WSW 17:52:06 63° NW 17:55:54 10° NNE
NOAA 11 4.3 17:46:53 10° NNE 17:52:21 75° ESE 17:55:55 22° S
CZ-2D R/B 2.2 17:47:21 10° N 17:52:40 63° WNW 17:55:08 32° SW
Cosmos 2322 Rocket 4.4 17:48:01 10° N 17:52:52 28° NE 17:57:40 10° ESE
Cosmos 1470 3.9 17:51:09 10° NNW 17:53:19 24° WNW 17:53:19 24° WNW
Envisat 3.2 17:50:22 10° NNE 17:55:26 71° ESE 17:58:48 21° S
SL-16 R/B 2.8 17:50:50 10° SSE 17:56:56 69° ENE 18:03:05 10° N
Meteor 2-10 Rocket 3.9 17:51:43 10° N 17:57:07 69° ENE 18:02:43 10° SSE
Cosmos 1707 4.2 17:58:01 18° WNW 17:58:01 18° WNW 18:00:00 10° NNW
Cosmos 2016 Rocket 4.1 18:01:54 10° N 18:08:01 75° E 18:14:08 10° SSE
ADEOS II 2.2 18:04:17 10° N 18:09:27 62° WNW 18:12:29 25° SW
Cosmos 1455 2.6 18:08:18 10° N 18:11:06 43° ENE 18:13:52 10° SSE
Cosmos 44 3.2 18:07:50 10° NW 18:12:16 55° WSW 18:16:54 10° SSE
Cosmos 2082 Rocket 2.6 18:09:26 26° WSW 18:12:20 48° WNW 18:17:48 10° NNE
IDEFIX/ARIANE 42P 4.2 18:09:29 10° NNW 18:13:08 20° WNW 18:15:10 16° W
ALOS 2.4 18:08:56 10° N 18:13:25 57° WNW 18:15:51 26° SW
Cosmos 1515 Rocket 4.2 18:11:30 10° S 18:15:38 54° E 18:19:51 10° NNE
Cosmos 1538 Rocket 4.0 18:15:40 23° SSW 18:18:58 72° WNW 18:24:11 10° NNE
Cosmos 1633 Rocket 3.0 18:16:04 10° NNW 18:20:25 63° W 18:24:14 13° S
ARIANE 6 FM1 Upper Stage 3.5 18:19:32 23° W 18:21:29 38° NW 18:25:19 10° NNE
Resurs 1-4 Rocket 3.0 18:17:41 10° N 18:22:22 33° WNW 18:25:07 20° WSW
Cosmos 1725 Rocket 3.9 18:16:34 10° N 18:22:46 82° W 18:28:56 10° S
Helios 1A Rocket 2.6 18:23:40 10° SSE 18:27:11 77° ENE 18:30:42 10° N
Cosmos 2360 Rocket 3.7 18:21:57 10° NNW 18:27:15 40° ENE 18:32:30 10° SE
Meteor 2-14 Rocket 4.4 18:22:37 13° SSW 18:28:05 75° W 18:34:15 10° N
IRIDIUM 104 4.4 18:24:53 16° SSW 18:28:55 57° W 18:34:04 10° N
USA 59 Rocket -0.7 18:30:40 22° SSW 18:32:45 78° SE 18:35:46 10° NE
UNK 4.1 18:28:18 10° SSE 18:32:53 68° ENE 18:37:29 10° N
Cosmos 2237 4.2 18:30:07 10° NNW 18:35:46 66° WSW 18:41:23 10° SSE
Cosmos 2123 Rocket 4.2 18:30:53 14° SSW 18:36:14 58° WNW 18:42:28 10° N
Cosmos 1758 3.1 18:36:43 10° NNW 18:40:31 72° W 18:44:18 10° S
NOSS 2-1 (D) 2.8 18:39:01 19° SW 18:41:27 84° NW 18:44:31 10° NE
CZ-4C R/B 4.5 18:38:06 10° WNW 18:41:57 14° WSW 18:43:12 14° WSW
Cosmos 1867 4.3 18:41:37 10° NW 18:46:17 30° WSW 18:50:54 10° S
H-2A R/B 2.1 18:47:05 10° NNE 18:52:19 89° ESE 18:57:41 10° SSW
Cosmos 1300 4.3 18:50:55 10° WNW 18:52:20 12° W 18:52:35 12° W
ISS -1.6 18:50:19 10° NW 18:53:07 23° N 18:55:54 10° NE
CZ-2C R/B 2.6 18:49:43 10° NNE 18:54:41 74° ESE 18:59:26 10° S
NOSS 2-1 (C) 3.0 18:52:16 15° SW 18:55:08 61° NW 18:58:10 10° NNE
Meteor 1-22 Rocket 4.3 18:53:14 10° NNW 18:58:53 61° W 19:04:17 10° S
NOSS 3 (A) 3.2 18:59:18 22° WSW 19:00:06 48° NW 19:01:37 10° NNE
Lacrosse 5 rocket 1.5 18:59:37 10° NW 19:02:58 56° NE 19:06:15 10° ESE
BlueWalker 3 3.7 19:00:53 10° NW 19:04:11 30° NNE 19:07:30 10° E
Cosmos 2233 Rocket 4.1 19:03:52 10° NNW 19:09:48 53° W 19:15:45 10° SSW
ATLAS 3B R/B 3.0 19:02:44 10° SW 19:10:05 87° NW 19:17:57 10° NE
Cosmos 2112 Rocket 4.1 19:05:24 10° SSW 19:10:44 88° ESE 19:16:04 10° NNE
COSMOS 2406 4.4 19:07:25 10° WSW 19:12:18 28° NW 19:17:12 10° N
Meteor 1-21 4.3 19:08:10 10° S 19:13:49 89° E 19:19:27 10° N
SL-16 R/B 2.5 19:08:53 10° NW 19:14:17 47° WSW 19:19:40 10° S
ARGOS 3.6 19:09:44 10° NNE 19:15:04 64° ESE 19:20:22 10° S
PAYLOAD A 3.8 19:15:19 10° N 19:20:01 77° WNW 19:24:42 10° SSW
YAOGAN 6 2.3 19:18:01 10° NNE 19:20:27 54° E 19:22:51 10° S
